#timestamp,LO_Frequency,Hit,StdDev 
1596704415.1,286047002.8,N
1596704416.0,286047002.8,N
1596704435.8,286047000.2,N
1596704455.6,286047000.3,N
1596704475.5,286047000.2,N
1596704495.3,286047000.9,N
1596704515.1,286047001.1,N
1596704535.9,286047001.2,N
1596704555.7,286047000.0,N
1596704575.6,286047000.8,N
1596704595.4,286046999.3,N
1596704615.2,286046996.6,N
1596704635.1,286046999.4,N
1596704636.0,286046999.4,N
1596704655.8,286046998.9,N
1596704675.7,286046996.5,N
1596704695.5,286046999.1,N
1596704715.3,286046999.1,N
1596704735.2,286046999.1,N
1596704755.0,286046997.4,N
1596704755.9,286046997.4,N
1596704775.8,286046994.9,Y
1596704795.6,286046997.5,P
1596704815.4,286046997.4,N
1596704835.3,286046997.2,N
1596704855.1,286046994.9,Y
1596704875.9,286046997.0,P
1596704895.7,286046996.5,P
1596704915.5,286046999.2,N
1596704935.4,286046998.7,N
1596704955.2,286046999.0,N
1596704975.0,286046999.3,N
1596704975.9,286046999.3,N
1596704995.8,286046999.4,N
1596705015.6,286046999.2,N
1596705035.5,286046999.3,N
1596705055.3,286046999.3,N
1596705075.1,286046999.6,N
1596705095.9,286046999.4,N
1596705115.7,286046999.3,N
1596705135.6,286046999.1,N
1596705155.4,286046998.4,N
1596705175.2,286047000.3,N
1596705195.1,286046999.1,N
1596705196.0,286046999.1,N
1596705215.8,286046997.5,N
1596705235.7,286046996.8,Y
1596705255.5,286046999.3,P
1596705275.3,286046998.6,P
1596705295.2,286046998.7,P
1596705315.0,286046999.3,N
1596705315.9,286046999.3,N
1596705335.8,286046998.6,Y
1596705355.6,286047000.6,P
1596705375.4,286047000.7,N
1596705395.3,286046998.2,N
1596705415.1,286046998.4,N
1596705435.9,286046998.7,N
1596705455.7,286046999.1,N
1596705475.5,286046998.4,N
1596705495.4,286046998.6,N
1596705515.2,286046998.2,N
1596705535.0,286046998.3,N
1596705535.9,286046998.3,N
1596705555.8,286046996.7,Y
1596705575.6,286046999.6,P
1596705595.5,286046999.1,N
1596705615.3,286046996.8,P
1596705635.1,286046996.9,N
1596705655.9,286046999.5,N
1596705675.7,286046999.6,N
1596705695.6,286046997.0,N
1596705715.4,286046999.3,N
1596705735.2,286046999.6,N
1596705755.1,286046999.0,N
1596705756.0,286046999.0,N
1596705775.8,286046999.3,N
1596705795.6,286046996.9,Y
1596705815.5,286046998.2,P
1596705835.3,286046998.6,P
1596705855.2,286046998.4,P
1596705875.9,286046998.8,Y
1596705895.7,286047001.2,P
1596705915.6,286046998.1,N
1596705935.4,286046998.6,N
1596705955.3,286046999.0,N
1596705975.1,286046999.0,N
1596705976.0,286046999.0,N
1596705995.8,286047000.5,N
1596706015.7,286046998.2,N
1596706035.5,286046998.3,N
1596706055.4,286046999.1,N
1596706075.2,286046998.4,N
1596706095.0,286046998.3,N
1596706095.9,286046998.3,N
1596706115.8,286047000.9,N
1596706135.6,286046999.9,N
1596706155.5,286046998.6,N
1596706175.3,286047001.2,N
1596706195.1,286046998.2,N
1596706215.9,286047000.9,N
1596706235.7,286047000.8,N
1596706255.5,286047000.4,N
1596706275.4,286047001.1,N
1596706295.2,286047000.6,N
1596706315.1,286047000.5,N
1596706316.0,286047000.5,N
1596706335.8,286047001.8,N
1596706355.6,286047002.3,N
1596706375.5,286047011.9,Y
1596706395.3,286046999.1,P
1596706415.2,286046999.5,N
1596706435.9,286046999.2,P
1596706455.7,286046997.0,Y
1596706475.6,286046998.8,P
1596706495.4,286046998.4,P
1596706515.3,286046998.4,P
1596706535.1,286047002.0,Y
1596706536.0,286047002.0,P
1596706555.8,286047004.4,N
1596706575.7,286047003.6,N
1596706595.5,286047003.8,N
1596706615.3,286047001.4,N
1596706635.2,286047002.0,N
1596706655.0,286047001.3,N
1596706655.9,286047001.3,N
1596706675.8,286047001.4,N
1596706695.6,286047003.9,N
1596706715.4,286047001.3,N
1596706735.3,286047004.3,N
1596706755.1,286047003.9,N
1596706775.9,286047001.7,N
1596706795.7,286047003.9,N
1596706815.5,286047004.1,N
1596706835.4,286047003.9,N
1596706855.2,286047001.7,N
1596706875.0,286047004.2,N
1596706875.9,286047004.2,N
1596706895.8,286047002.9,N
1596706915.6,286047002.9,N
1596706935.5,286047004.1,N
1596706955.3,286047003.1,N
1596706975.1,286047003.4,N
1596706995.9,286047003.3,N
1596707015.7,286047003.5,N
1596707035.6,286047005.9,Y
1596707055.4,286046999.7,P
1596707075.2,286047002.5,N
1596707095.1,286047002.3,N
1596707096.0,286047002.3,N
1596707115.8,286047002.7,N
1596707135.6,286047002.4,N
1596707155.5,286047002.6,N
1596707175.3,286047002.8,N
1596707195.2,286047001.4,N
1596707215.9,286047001.9,N
1596707235.7,286047001.5,N
1596707255.6,286047001.7,N
1596707275.4,286047001.3,N
1596707295.3,286047001.3,N
1596707315.1,286047001.5,N
1596707316.0,286047001.5,N
1596707335.8,286047001.5,N
1596707355.7,286047003.9,Y
1596707375.5,286047000.2,P
1596707395.4,286047000.0,N
1596707415.2,286047000.4,N
1596707435.0,286047002.8,Y
1596707435.9,286047002.8,P
1596707455.8,286047000.9,N
1596707475.6,286047000.7,N
1596707495.4,286046998.3,N
1596707515.3,286047000.4,N
1596707535.1,286047000.0,N
1596707555.0,286046999.9,N
1596707555.9,286046999.9,N
1596707575.8,286047002.4,N
1596707595.6,286047002.4,N
1596707615.4,286046999.7,N
1596707635.3,286047002.3,N
1596707655.1,286047002.6,N
1596707675.9,286047002.5,N
1596707695.7,286047002.5,N
1596707715.5,286047000.5,N
1596707735.4,286047000.4,N
1596707755.2,286047000.6,N
1596707775.0,286047000.3,N
1596707775.9,286047000.3,N
1596707795.8,286047000.5,N
1596707815.6,286047000.1,N
1596707835.5,286047000.1,N
1596707855.3,286047000.6,N
1596707875.1,286047001.1,N
1596707895.9,286047001.0,N
1596707915.7,286047000.9,N
1596707935.6,286047000.1,N
1596707955.4,286047000.4,N
1596707975.2,286047000.1,N
1596707995.1,286047000.1,N
1596707996.0,286047000.1,N
